Simultaneous Nadir Overpasses (SNOs) Predictions

Prediction of SNOs between METOP-B and TERRA Satellite Orbit:

Table of predicted SNOs for the next 14.0 days since TLE Epoch: 9/23/2023
Index Date (METOP-B) Time (METOP-B) Lat,Lon (METOP-B) SZA (METOP-B ) Date (TERRA) Time (TERRA) Lat,Lon (TERRA) SZA (TERRA ) Distance(km) Time Diff (sec)
1 09/24/2023 07:33:28 -80.70, -83.48 97.54 09/24/2023 07:33:36 -80.70, -83.47 97.54 0.16 8
2 09/24/2023 08:24:06 80.75, 84.72 82.60 09/24/2023 08:22:56 80.76, 84.83 82.59 2.06 70
3 09/26/2023 22:54:25 80.70,-133.68 83.51 09/26/2023 22:54:52 80.70,-133.79 83.51 2.10 27
4 09/26/2023 23:45:04 -80.75, 34.37 96.38 09/26/2023 23:44:13 -80.74, 34.29 96.41 1.73 51
5 09/29/2023 14:15:23 -80.67, 175.58 95.52 09/29/2023 14:16:08 -80.66, 175.48 95.52 1.95 45
6 09/29/2023 15:06:00 80.74, -15.92 84.66 09/29/2023 15:05:27 80.74, -16.01 84.64 1.50 33
7 10/02/2023 05:36:21 80.64, 124.86 85.46 10/02/2023 05:37:23 80.64, 124.89 85.48 0.83 62
8 10/02/2023 06:27:00 -80.69, -67.06 94.43 10/02/2023 06:26:44 -80.69, -66.93 94.42 2.48 16



Historial Predications of SNOs between METOP-B and TERRA
